Location: Stilling
(56.0622°N, 9.9882°E)
Time: 23:38:18
(UTC+00:00)

JB-3 - Pass Details

Date: 13 July 2020
Orbit: 525 x 591 km, 97.3° (Epoch: 03 August)

Event Time Altitude Azimuth Distance (km) Brightness Sun altitude
Rises 21:24:59 0° 17° (NNE) 2,683 8.6 -8.2°
Reaches altitude 10° 21:27:09 10° 22° (NNE) 1,784 7.5 -8.3°
Maximum altitude 21:30:54 53° 100° (E) 657 4.5 -8.6°
Drops below altitude 10° 21:34:39 10° 178° (S) 1,770 6.3 -8.8°
Enters shadow 21:34:44 10° 179° (S) 1,805 6.4 -8.8°
